Weather History for Havre, MT

Change the Weather History Date:

Thursday, April 4, 2013

  Actual Average Record
Temperature  
Mean Temperature 44 °F 41 °F  
Max Temperature 57 °F 54 °F 74 °F (2012)
Min Temperature 31 °F 28 °F -2 °F (1975)
Degree Days  
Heating Degree Days 21 24  
Month to date heating degree days 82 99  
Since 1 July heating degree days 6945 7217  
Cooling Degree Days 0 0  
Month to date cooling degree days 0 0  
Year to date cooling degree days 0 0  
Moisture  
Dew Point 28 °F    
Average Humidity 58    
Maximum Humidity 78    
Minimum Humidity 38    
Precipitation  
Precipitation T in 0.02 in 1.06 in (1955)
Month to date precipitation T 0.09  
Year to date precipitation 1.92 1.24  
Snow  
Snow 0.00 in 0.20 in 12.50 in (1955)
Month to date snowfall 0.0 0.7  
Since 1 July snowfall 47.0 34.9  
Snow Depth 0.00 in    
Sea Level Pressure  
Sea Level Pressure 30.03 in    
Wind  
Wind Speed 16 mph (East)    
Max Wind Speed 28 mph    
Max Gust Speed 33 mph    
Visibility 10 miles    
Events Rain    
T = Trace of Precipitation, MM = Missing Value Source: NWS Daily Summary

Daily Weather History Graph

Daily Weather History Graph

Search for Another Location

Airport:

Trip Planner

Search our weather history database for the weather conditions in past years. The results will help you decide how hot, cold, wet, or windy it might be!

Date:

Astronomy

Apr. 04, 2013 Rise Set
Actual Time 6:50 AM MDT 7:54 PM MDT
Civil Twilight 6:18 AM MDT 8:26 PM MDT
Nautical Twilight 5:39 AM MDT 9:05 PM MDT
Astronomical Twilight 4:58 AM MDT 9:46 PM MDT
Moon 3:46 AM MDT (4/4) 1:51 PM MDT (4/4)
Length of Visible Light 14h 08m
Length of Day
13h 04m
Waning Crescent, 33% of the Moon is Illuminated
Apr 4
Waning Crescent
Apr 10
New
Apr 18
First Quarter
Apr 25
Full
May 2
Last Quarter

Hourly Weather History & Observations

Time (MDT) Temp. Windchill Dew Point Humidity Pressure Visibility Wind Dir Wind Speed Gust Speed Precip Events Conditions
12:53 AM 39.9 °F 31.1 °F 25.0 °F 55% 30.17 in 10.0 mi East 17.3 mph - N/A   Overcast
1:53 AM 37.0 °F 25.9 °F 26.1 °F 65% 30.18 in 10.0 mi East 23.0 mph - N/A   Overcast
2:53 AM 36.0 °F 24.4 °F 27.0 °F 70% 30.18 in 10.0 mi East 23.0 mph 28.8 mph N/A   Overcast
3:53 AM 33.1 °F 20.9 °F 25.0 °F 72% 30.19 in 10.0 mi East 21.9 mph 32.2 mph N/A   Overcast
4:07 AM 33.8 °F 21.0 °F 24.8 °F 70% 30.14 in 10.0 mi East 25.3 mph 32.2 mph N/A   Overcast
4:53 AM 32.0 °F 19.8 °F 25.0 °F 75% 30.20 in 10.0 mi East 20.7 mph - N/A   Overcast
5:30 AM 32.0 °F 19.5 °F 24.8 °F 75% 30.15 in 10.0 mi East 21.9 mph 28.8 mph N/A   Overcast
5:53 AM 32.0 °F 19.2 °F 25.0 °F 75% 30.20 in 10.0 mi East 23.0 mph - N/A   Mostly Cloudy
6:53 AM 32.0 °F 20.8 °F 26.1 °F 79% 30.20 in 10.0 mi East 17.3 mph - N/A   Partly Cloudy
7:53 AM 33.1 °F 22.2 °F 26.1 °F 75% 30.20 in 10.0 mi East 17.3 mph 24.2 mph N/A   Mostly Cloudy
8:53 AM 36.0 °F 25.6 °F 26.1 °F 67% 30.19 in 10.0 mi East 18.4 mph 23.0 mph N/A   Partly Cloudy
9:53 AM 39.9 °F 32.5 °F 26.1 °F 58% 30.16 in 10.0 mi East 12.7 mph - N/A   Partly Cloudy
10:53 AM 45.0 °F 40.6 °F 28.0 °F 52% 30.14 in 10.0 mi East 8.1 mph - N/A   Clear
11:53 AM 46.9 °F - 28.0 °F 48% 30.10 in 10.0 mi East 9.2 mph - N/A   Clear
12:53 PM 50.0 °F - 30.0 °F 46% 30.06 in 10.0 mi ENE 13.8 mph 21.9 mph N/A   Clear
1:53 PM 53.1 °F - 30.0 °F 41% 30.02 in 10.0 mi East 10.4 mph 21.9 mph N/A   Clear
2:53 PM 55.9 °F - 30.9 °F 39% 29.97 in 10.0 mi East 17.3 mph 26.5 mph N/A   Clear
3:53 PM 55.9 °F - 30.0 °F 37% 29.95 in 10.0 mi East 17.3 mph 25.3 mph N/A   Clear
4:53 PM 55.9 °F - 30.0 °F 37% 29.91 in 10.0 mi East 17.3 mph - N/A   Clear
5:53 PM 54.0 °F - 30.0 °F 40% 29.89 in 10.0 mi East 19.6 mph 25.3 mph N/A   Mostly Cloudy
6:53 PM 53.1 °F - 30.0 °F 41% 29.88 in 10.0 mi SSE 10.4 mph - N/A   Overcast
7:53 PM 51.1 °F - 30.0 °F 44% 29.86 in 10.0 mi East 9.2 mph - N/A   Overcast
8:53 PM 50.0 °F - 30.0 °F 46% 29.83 in 10.0 mi East 16.1 mph - N/A   Overcast
9:53 PM 46.9 °F - 33.1 °F 59% 29.81 in 10.0 mi ENE 13.8 mph - N/A   Overcast
10:53 PM 46.9 °F - 33.1 °F 59% 29.77 in 10.0 mi ENE 10.4 mph - N/A   Overcast
11:53 PM 45.0 °F 38.2 °F 33.1 °F 63% 29.75 in 10.0 mi East 15.0 mph - 0.00 in Rain Light Rain